Brodnax, VA

3:46 AM EST on January 22, 2017 (GMT -0500)
Mecklenburg-Brunswick Regional

Weather History for KAVC - July, 2013

Change the Weather History Date:

Wednesday, July 3, 2013

  Actual Average (KEMV) Record (KEMV)
Temperature  
Mean Temperature 80 °F -  
Max Temperature 87 °F 87 °F 98 °F (2002)
Min Temperature 73 °F 63 °F 50 °F (1988)
Cooling Degree Days 15    
Growing Degree Days 30 (Base 50)    
Moisture  
Dew Point 76 °F    
Average Humidity 92    
Maximum Humidity 100    
Minimum Humidity 66    
Precipitation  
Precipitation 0.14 in - - ()
Sea Level Pressure  
Sea Level Pressure 30.28 in    
Wind  
Wind Speed 6 mph (South)    
Max Wind Speed 10 mph    
Max Gust Speed 17 mph    
Visibility 9 miles    
Events Rain , Thunderstorm    
Averages and records for this station are not official NWS values.
T = Trace of Precipitation, MM = Missing Value Source: NWS Daily Summary

Daily Weather History Graph

Daily Weather History Graph

Search for Another Location

Airport or City:

Trip Planner

Search our weather history database for the weather conditions in past years. The results will help you decide how hot, cold, wet, or windy it might be!

Date:

Astronomy

Jul. 03, 2013 Rise Set
Actual Time 5:58 AM EDT 8:34 PM EDT
Civil Twilight 5:27 AM EDT 9:05 PM EDT
Nautical Twilight 4:49 AM EDT 9:42 PM EDT
Astronomical Twilight 4:07 AM EDT 10:24 PM EDT
Moon 2:31 AM EDT (7/3) 4:45 PM EDT (7/3)
Length of Visible Light 15h 37m
Length of Day
14h 36m
Waning Crescent, 18% of the Moon is Illuminated
Jul 3
Waning Crescent
Jul 8
New
Jul 15
First Quarter
Jul 22
Full
Jul 29
Last Quarter

Hourly Weather History & Observations

Time (EDT) Temp. Heat Index Dew Point Humidity Pressure Visibility Wind Dir Wind Speed Gust Speed Precip Events Conditions
12:15 AM 73.4 °F - 73.4 °F 100% 30.26 in 10.0 mi SSE 3.5 mph - N/A   Overcast
12:35 AM 73.4 °F - 73.4 °F 100% 30.25 in 10.0 mi SSE 4.6 mph - N/A   Overcast
12:55 AM 75.2 °F - 75.2 °F 100% 30.25 in 10.0 mi SSE 4.6 mph - N/A   Overcast
1:15 AM 75.2 °F - 75.2 °F 100% 30.25 in 10.0 mi SSE 5.8 mph - N/A   Overcast
1:35 AM 75.2 °F - 75.2 °F 100% 30.24 in 10.0 mi SSE 6.9 mph - N/A   Overcast
1:55 AM 75.2 °F - 75.2 °F 100% 30.24 in 10.0 mi South 6.9 mph - N/A   Mostly Cloudy
2:15 AM 73.4 °F - 73.4 °F 100% 30.24 in 10.0 mi SSE 6.9 mph - N/A   Scattered Clouds
2:35 AM 73.4 °F - 73.4 °F 100% 30.23 in 10.0 mi SSE 6.9 mph - N/A   Scattered Clouds
2:55 AM 73.4 °F - 73.4 °F 100% 30.24 in 10.0 mi South 5.8 mph - N/A   Mostly Cloudy
3:15 AM 73.4 °F - 73.4 °F 100% 30.23 in 10.0 mi South 4.6 mph - N/A   Overcast
3:35 AM 75.2 °F - 75.2 °F 100% 30.23 in 10.0 mi SSE 5.8 mph - N/A   Overcast
3:55 AM 75.2 °F - 75.2 °F 100% 30.23 in 10.0 mi SSE 6.9 mph - N/A   Overcast
4:15 AM 75.2 °F - 75.2 °F 100% 30.24 in 7.0 mi South 5.8 mph - N/A   Overcast
4:35 AM 75.2 °F - 75.2 °F 100% 30.24 in 7.0 mi South 9.2 mph - N/A   Overcast
4:55 AM 75.2 °F - 75.2 °F 100% 30.24 in 5.0 mi South 9.2 mph - N/A   Overcast
5:15 AM 75.2 °F - 75.2 °F 100% 30.24 in 7.0 mi South 8.1 mph - N/A   Overcast
5:35 AM 75.2 °F - 75.2 °F 100% 30.24 in 7.0 mi South 5.8 mph - N/A   Overcast
5:55 AM 75.2 °F - 75.2 °F 100% 30.25 in 7.0 mi SSE 5.8 mph - N/A   Overcast
6:15 AM 75.2 °F - 75.2 °F 100% 30.25 in 7.0 mi SSE 4.6 mph - N/A   Overcast
6:35 AM 75.2 °F - 75.2 °F 100% 30.26 in 7.0 mi SSE 5.8 mph - N/A   Overcast
6:55 AM 75.2 °F - 75.2 °F 100% 30.27 in 7.0 mi South 4.6 mph - N/A   Overcast
7:15 AM 75.2 °F - 75.2 °F 100% 30.28 in 7.0 mi South 4.6 mph - N/A   Overcast
7:35 AM 77.0 °F - 77.0 °F 100% 30.28 in 7.0 mi South 8.1 mph - N/A   Overcast
7:55 AM 77.0 °F - 77.0 °F 100% 30.29 in 10.0 mi South 8.1 mph - N/A   Overcast
8:15 AM 78.8 °F - 78.8 °F 100% 30.29 in 10.0 mi South 8.1 mph - N/A   Overcast
8:35 AM 78.8 °F - 78.8 °F 100% 30.30 in 10.0 mi South 8.1 mph - N/A   Overcast
8:55 AM 78.8 °F - 78.8 °F 100% 30.30 in 10.0 mi South 9.2 mph - N/A   Mostly Cloudy
9:15 AM 80.6 °F 88.1 °F 78.8 °F 94% 30.30 in 10.0 mi South 10.4 mph - N/A   Scattered Clouds
9:35 AM 82.4 °F 92.4 °F 78.8 °F 89% 30.30 in 10.0 mi South 8.1 mph - N/A   Scattered Clouds
9:55 AM 82.4 °F 92.4 °F 78.8 °F 89% 30.31 in 10.0 mi South 9.2 mph - N/A   Mostly Cloudy
10:15 AM 82.4 °F 92.4 °F 78.8 °F 89% 30.30 in 10.0 mi South 10.4 mph - N/A   Mostly Cloudy
10:35 AM 84.2 °F 96.1 °F 78.8 °F 84% 30.30 in 10.0 mi South 10.4 mph - N/A   Scattered Clouds
10:55 AM 82.4 °F 92.4 °F 78.8 °F 89% 30.30 in 10.0 mi South 8.1 mph - N/A   Scattered Clouds
11:15 AM 84.2 °F 92.3 °F 75.2 °F 74% 30.30 in 10.0 mi South 9.2 mph - N/A   Scattered Clouds
11:35 AM 86.0 °F 95.1 °F 75.2 °F 70% 30.30 in 10.0 mi South 10.4 mph - N/A   Scattered Clouds
11:55 AM 86.0 °F 95.1 °F 75.2 °F 70% 30.30 in 10.0 mi South 9.2 mph - N/A   Scattered Clouds
12:15 PM 86.0 °F 95.1 °F 75.2 °F 70% 30.30 in 10.0 mi South 8.1 mph - N/A   Clear
12:35 PM 87.8 °F 97.6 °F 75.2 °F 66% 30.30 in 10.0 mi SSE 9.2 mph - N/A   Clear
12:55 PM 87.8 °F 97.6 °F 75.2 °F 66% 30.29 in 10.0 mi South 9.2 mph - N/A   Scattered Clouds
1:15 PM 84.2 °F 92.3 °F 75.2 °F 74% 30.29 in 10.0 mi South 6.9 mph - N/A   Mostly Cloudy
1:35 PM 84.2 °F 94.1 °F 77.0 °F 79% 30.28 in 10.0 mi South 4.6 mph - N/A   Scattered Clouds
1:55 PM 82.4 °F 90.9 °F 77.0 °F 84% 30.29 in 10.0 mi South 3.5 mph - N/A   Clear
2:15 PM 82.4 °F 90.9 °F 77.0 °F 84% 30.29 in 10.0 mi South 4.6 mph - N/A   Clear
2:35 PM 82.4 °F 90.9 °F 77.0 °F 84% 30.28 in 10.0 mi South 5.8 mph - N/A Thunderstorm Thunderstorm
2:55 PM 84.2 °F 94.1 °F 77.0 °F 79% 30.28 in 10.0 mi SSE 5.8 mph - N/A Thunderstorm Thunderstorm
3:15 PM 84.2 °F 96.1 °F 78.8 °F 84% 30.29 in 10.0 mi SSE 9.2 mph - N/A   Mostly Cloudy
3:35 PM 84.2 °F 92.3 °F 75.2 °F 74% 30.28 in 10.0 mi South 10.4 mph - N/A   Scattered Clouds
3:55 PM 82.4 °F 89.5 °F 75.2 °F 79% 30.28 in 10.0 mi South 6.9 mph 16.1 mph N/A   Scattered Clouds
4:15 PM 82.4 °F 89.5 °F 75.2 °F 79% 30.27 in 10.0 mi SSE 9.2 mph - N/A   Scattered Clouds
4:35 PM 84.2 °F 92.3 °F 75.2 °F 74% 30.28 in 10.0 mi South 10.4 mph 17.3 mph N/A   Clear
4:55 PM 84.2 °F 92.3 °F 75.2 °F 74% 30.28 in 10.0 mi South 8.1 mph - N/A   Clear
5:15 PM 84.2 °F 92.3 °F 75.2 °F 74% 30.28 in 10.0 mi South 8.1 mph - N/A Thunderstorm Scattered Clouds
5:35 PM 82.4 °F 90.9 °F 77.0 °F 84% 30.28 in 10.0 mi SSE 5.8 mph - N/A   Scattered Clouds
5:55 PM 82.4 °F 90.9 °F 77.0 °F 84% 30.27 in 10.0 mi SSE 5.8 mph - N/A   Scattered Clouds
6:15 PM 80.6 °F 87.1 °F 77.0 °F 89% 30.27 in 10.0 mi SSE 4.6 mph - N/A   Scattered Clouds
6:35 PM 80.6 °F 87.1 °F 77.0 °F 89% 30.27 in 10.0 mi SSE 4.6 mph - N/A   Clear
6:55 PM 80.6 °F 87.1 °F 77.0 °F 89% 30.28 in 10.0 mi SSE 5.8 mph - N/A   Clear
7:15 PM 80.6 °F 88.1 °F 78.8 °F 94% 30.28 in 10.0 mi South 4.6 mph - N/A   Clear
7:35 PM 78.8 °F - 78.8 °F 100% 30.29 in 5.0 mi South 5.8 mph - 0.09 in Rain Heavy Rain
7:55 PM 78.8 °F - 78.8 °F 100% 30.30 in 7.0 mi South 3.5 mph - 0.03 in Rain Rain
8:15 PM 78.8 °F - 78.8 °F 100% 30.30 in 10.0 mi Calm Calm - 0.03 in Thunderstorm Scattered Clouds
8:35 PM 77.0 °F - 77.0 °F 100% 30.30 in 10.0 mi Calm Calm - 0.03 in   Scattered Clouds
8:55 PM 75.2 °F - 75.2 °F 100% 30.30 in 10.0 mi SSE 3.5 mph - 0.01 in Rain Rain
9:15 PM 75.2 °F - 75.2 °F 100% 30.30 in 10.0 mi Calm Calm - 0.02 in Rain Light Rain
9:35 PM 75.2 °F - 75.2 °F 100% 30.30 in 10.0 mi SSE 4.6 mph - 0.02 in   Scattered Clouds
9:55 PM 75.2 °F - 75.2 °F 100% 30.30 in 10.0 mi SSE 3.5 mph - N/A   Clear
10:15 PM 75.2 °F - 75.2 °F 100% 30.31 in 10.0 mi SSE 3.5 mph - N/A   Clear
10:35 PM 75.2 °F - 75.2 °F 100% 30.31 in 10.0 mi SSE 4.6 mph - N/A   Clear
10:55 PM 75.2 °F - 75.2 °F 100% 30.31 in 10.0 mi South 3.5 mph - N/A   Clear
11:15 PM 75.2 °F - 75.2 °F 100% 30.31 in 10.0 mi SSE 5.8 mph - N/A   Clear
11:35 PM 75.2 °F - 75.2 °F 100% 30.31 in 10.0 mi South 3.5 mph - N/A   Clear
11:55 PM 73.4 °F - 73.4 °F 100% 30.31 in 10.0 mi South 4.6 mph - N/A   Clear